Regional Weather Roundup
Issued by NWS State College, PA

Home | Current Version | Previous Version | Text Only | Print | Product List | Glossary On
Versions: 1 2 3 4 5 6 7 8 9 10 11 12 13 14 15 16 17 18 19 20 21 22 23 24 25 26 27 28 29 30 31 32 33 34 35 36 37 38 39 40 41 42 43 44 45 46 47 48 49 50
301
ASUS41 KCTP 241310
RWRCTP

REGIONAL WEATHER ROUNDUP
NATIONAL WEATHER SERVICE STATE COLLEGE PA
900 AM EDT SUN JUL 24 2016

Note: "fair" indicates few or no clouds below 12,000 feet with no
significant weather and/or obstructions to visibility.

* = STATION THAT DOES NOT REPORT PRECIPITATION /E.G. RAIN...SNOW...ETC/
    THUNDER OR FOG.

PAZ002>004-007>009-013>016-020>023-029>032-241400-
WESTERN PENNSYLVANIA

CITY           SKY/WX    TMP DP  RH WIND       PRES   REMARKS
ERIE           CLOUDY    74  63  68 CALM      30.00F
MEADVILLE      CLOUDY    69  60  73 S3        30.04S
FRANKLIN*      CLOUDY    72  61  68 S5        30.08R
NEW CASTLE     FAIR      73  65  75 CALM      30.03F
BEAVER COUNTY  NOT AVBL
BUTLER*        PTSUNNY   75  64  69 CALM      30.07R
PITTSBURGH INT PTSUNNY   77  66  68 SE5       30.04R
PITTSBURGH     MOSUNNY   74  69  85 CALM      30.04R
INDIANA*       SUNNY     75  68  78 CALM      30.08F
LATROBE        SUNNY     73  72  94 CALM      30.05F
WASHINGTON CO* MOSUNNY   75  72  88 CALM      30.05R
$$

PAZ004>006-010>012-017>019-024>028-033>037-041-042-045-046-049>053-241400-
CENTRAL PENNSYLVANIA

CITY           SKY/WX    TMP DP  RH WIND       PRES   REMARKS
BRADFORD       MOSUNNY   71  62  73 E5        30.09S
DUBOIS         SUNNY     74  60  61 SE6       30.07F
CLEARFIELD     SUNNY     71  59  65 CALM      30.08F
JOHNSTOWN      MOSUNNY   74  64  71 S3        30.10S
ALTOONA        SUNNY     76  63  64 CALM      30.08S
STATE COLLEGE  SUNNY     73  61  64 CALM      30.07S
WILLIAMSPORT   MOSUNNY   74  59  59 W3        30.03S
SELINSGROVE    SUNNY     75  64  68 CALM      30.04S
FT INDIANTOWN  SUNNY     79  59  50 VRB2      30.02S
CAPITAL CITY   SUNNY     80  62  54 CALM      30.02S
HARRISBURG     MOSUNNY   79  66  64 NW5       30.01S
YORK           SUNNY     79  65  62 CALM      30.02F
$$

PAZ038>040-043-044-047-048-054-055-060>062-067>071-241400-
EASTERN PENNSYLVANIA

CITY           SKY/WX    TMP DP  RH WIND       PRES   REMARKS
SCRANTON       SUNNY     76  58  53 W3        30.04F
MOUNT POCONO   SUNNY     74  32  21 CALM      30.08S
ALLENTOWN      SUNNY     78  61  55 NW3       30.02S
QUAKERTOWN*    SUNNY     82  61  47 CALM      30.03S
READING        SUNNY     79  62  56 CALM      30.01S
LANCASTER      SUNNY     75  69  81 CALM      30.02S
COATESVILLE    SUNNY     81  66  61 N3        30.04S
POTTSTOWN      SUNNY     80  63  55 N3        30.03S
BLUE BELL      SUNNY     79  64  61 N3        30.00S
DOYLESTOWN     SUNNY     81  61  50 N5        30.01S
WILLOW GROVE   NOT AVBL
NORTH PHILA    SUNNY     85  61  44 NE7       30.01F
PHILADELPHIA   MOSUNNY   85  61  44 N8        29.99F
$$




USA.gov is the U.S. government's official web portal to all federal, state and local government web resources and services.